Palermo, Italy

9:31 AM CEST on September 26, 2017 (GMT +0200)
Punta Raisi

Weather History for LICJ - July, 2017

Change the Weather History Date:

Monday, July 17, 2017

  Actual Average Record
Temperature  
Mean Temperature 78 °F -  
Max Temperature 80 °F 84 °F 93 °F (2003)
Min Temperature 75 °F 74 °F 67 °F (2016)
Cooling Degree Days 12    
Growing Degree Days 28 (Base 50)    
Moisture  
Dew Point 58 °F    
Average Humidity 48    
Maximum Humidity 57    
Minimum Humidity 39    
Precipitation  
Precipitation 0.00 in 0.01 in - ()
Sea Level Pressure  
Sea Level Pressure 30.01 in    
Wind  
Wind Speed 15 mph ()    
Max Wind Speed 20 mph    
Max Gust Speed -    
Visibility 7.4 miles    
Events      
Averages and records for this station are not official NWS values.
T = Trace of Precipitation, MM = Missing Value Source: Averaged Metar Reports

Daily Weather History Graph

Daily Weather History Graph

Search for Another Location

Airport or City:

Trip Planner

Search our weather history database for the weather conditions in past years. The results will help you decide how hot, cold, wet, or windy it might be!

Date:

Astronomy

Jul. 17, 2017 Rise Set
Actual Time 5:58 AM CEST 8:29 PM CEST
Civil Twilight 5:27 AM CEST 8:59 PM CEST
Nautical Twilight 4:49 AM CEST 9:37 PM CEST
Astronomical Twilight 4:07 AM CEST 10:19 PM CEST
Moon 12:54 AM CEST (7/17) 2:04 PM CEST (7/17)
Length of Visible Light 15h 32m
Length of Day
14h 31m
Last Quarter, 43% of the Moon is Illuminated
Jul 17
Last Quarter
Jul 23
New
Jul 30
First Quarter
Aug 7
Full
Aug 15
Last Quarter

Hourly Weather History & Observations

Time (CEST) Temp. Heat Index Dew Point Humidity Pressure Visibility Wind Dir Wind Speed Gust Speed Precip Events Conditions
12:20 AM 80.6 °F 80.8 °F 57.2 °F 45% 29.98 in - NNE 19.6 mph - N/A   Clear
12:50 AM 78.8 °F - 57.2 °F 47% 29.98 in - NE 18.4 mph - N/A   Clear
1:20 AM 78.8 °F - 57.2 °F 47% 29.98 in - NE 17.3 mph - N/A   Clear
1:50 AM 78.8 °F - 59.0 °F 51% 29.98 in - NE 17.3 mph - N/A   Clear
2:00 AM 79 °F - 59 °F 39% 29.98 in 19 mi NE 18.4 mph - -  
2:20 AM 78.8 °F - 57.2 °F 47% 29.98 in - NE 17.3 mph - N/A   Clear
2:50 AM 77.0 °F - 57.2 °F 50% 29.98 in - NE 17.3 mph - N/A   Clear
3:20 AM 77.0 °F - 59.0 °F 54% 29.95 in - NE 18.4 mph - N/A   Clear
4:50 AM 77.0 °F - 59.0 °F 54% 29.95 in - NE 19.6 mph - N/A   Clear
5:00 AM 77 °F - 59 °F 43% 29.98 in 19 mi NE 19.6 mph - -  
5:20 AM 77.0 °F - 57.2 °F 50% 29.95 in - NE 17.3 mph - N/A   Clear
5:50 AM 75.2 °F - 57.2 °F 53% 29.95 in - ENE 17.3 mph - N/A   Clear
6:20 AM 75.2 °F - 55.4 °F 50% 29.98 in - ENE 16.1 mph - N/A   Clear
6:50 AM 77.0 °F - 57.2 °F 50% 29.98 in - NE 17.3 mph - N/A   Clear
7:20 AM 77.0 °F - 59.0 °F 54% 29.98 in - NE 15.0 mph - N/A   Clear
7:50 AM 77.0 °F - 57.2 °F 50% 29.98 in - NE 15.0 mph - N/A   Clear
8:00 AM 77 °F - 58 °F 42% 30.00 in 6 mi NE 15.0 mph - -  
8:20 AM 78.8 °F - 57.2 °F 47% 29.98 in 6.2 mi NE 15.0 mph - N/A   Scattered Clouds
8:50 AM 78.8 °F - 55.4 °F 44% 30.01 in 6.2 mi NE 17.3 mph - N/A   Partly Cloudy
9:50 AM 78.8 °F - 57.2 °F 47% 30.01 in 6.2 mi NE 17.3 mph - N/A   Partly Cloudy
10:20 AM 78.8 °F - 59.0 °F 51% 30.01 in 6.2 mi NE 19.6 mph - N/A   Scattered Clouds
10:50 AM 78.8 °F - 59.0 °F 51% 30.01 in 6.2 mi NE 19.6 mph - N/A   Partly Cloudy
11:20 AM 78.8 °F - 57.2 °F 47% 30.01 in 6.2 mi NE 18.4 mph - N/A   Partly Cloudy
11:50 AM 80.6 °F 81.1 °F 59.0 °F 48% 30.01 in 6.2 mi NE 17.3 mph - N/A   Partly Cloudy
12:50 PM 80.6 °F 81.1 °F 59.0 °F 48% 30.04 in 6.2 mi NE 18.4 mph - N/A   Partly Cloudy
1:20 PM 80.6 °F 81.1 °F 59.0 °F 48% 30.04 in 6.2 mi NE 17.3 mph - N/A   Partly Cloudy
1:50 PM 80.6 °F 80.8 °F 57.2 °F 45% 30.04 in 6.2 mi NE 17.3 mph - N/A   Partly Cloudy
2:20 PM 80.6 °F 80.8 °F 57.2 °F 45% 30.04 in 6.2 mi NE 16.1 mph - N/A   Partly Cloudy
2:50 PM 80.6 °F 80.8 °F 57.2 °F 45% 30.04 in 6.2 mi NE 16.1 mph - N/A   Partly Cloudy
3:20 PM 80.6 °F 80.8 °F 57.2 °F 45% 30.04 in - NE 16.1 mph - N/A   Clear
3:50 PM 78.8 °F - 57.2 °F 47% 30.04 in 6.2 mi NNE 15.0 mph - N/A   Partly Cloudy
4:20 PM 78.8 °F - 59.0 °F 51% 30.04 in 6.2 mi NNE 12.7 mph - N/A   Partly Cloudy
4:50 PM 78.8 °F - 59.0 °F 51% 30.04 in - NNE 13.8 mph - N/A   Clear
5:20 PM 78.8 °F - 59.0 °F 51% 30.04 in 6.2 mi NNE 15.0 mph - N/A   Partly Cloudy
5:50 PM 78.8 °F - 57.2 °F 47% 30.01 in 6.2 mi NE 16.1 mph - N/A   Partly Cloudy
6:20 PM 78.8 °F - 55.4 °F 44% 30.01 in 6.2 mi NE 15.0 mph - N/A   Partly Cloudy
6:50 PM 78.8 °F - 55.4 °F 44% 30.01 in - NE 15.0 mph - N/A   Clear
7:20 PM 78.8 °F - 55.4 °F 44% 30.01 in - NE 13.8 mph - N/A   Clear
7:50 PM 78.8 °F - 55.4 °F 44% 30.04 in - NE 11.5 mph - N/A   Clear
8:20 PM 78.8 °F - 57.2 °F 47% 30.04 in - NE 11.5 mph - N/A   Clear
8:50 PM 77.0 °F - 55.4 °F 47% 30.04 in 6.2 mi ENE 11.5 mph - N/A   Partly Cloudy
9:20 PM 77.0 °F - 57.2 °F 50% 30.04 in - NE 12.7 mph - N/A   Clear
9:50 PM 77.0 °F - 59.0 °F 54% 30.06 in - NE 12.7 mph - N/A   Clear
10:20 PM 77.0 °F - 60.8 °F 57% 30.06 in - NE 15.0 mph - N/A   Clear
11:20 PM 77.0 °F - 60.8 °F 57% 30.06 in 6.2 mi NE 12.7 mph - N/A   Partly Cloudy